User: anonymous   Login
Location: Unspecified
(0.0000°N, 0.0000°E)
Time: 15:07:55
(UTC+02:00)
Language:

Timation 2 Rocket - Orbit

View from above orbital plane
View from above orbital plane
View from above satellite
View from above satellite

Ground track
Ground track

The orbit data is extracted from the following two-line orbital elements,

1 04159U 69082AB  16120.82296568  .00000013  00000-0  66420-4 0  9996
2 04159  69.9620 287.4374 0117687 244.6597 114.2271 13.72342712331361
Epoch (UTC): 29 April 2016 19:45:04
Eccentricity: 0.0117687
inclination: 69.9620°
perigee height: 904 km
apogee height: 1078 km
right ascension of ascending node: 287.4374°
argument of perigee: 244.6597°
revolutions per day: 13.72342712
mean anomaly at epoch: 114.2271°
orbit number at epoch: 33136

The dashed part of the orbit path shows where the satellite is in the earth's shadow,  

DLR